N2611 -KLWM

Flight info

Callsign N2611
Flight time N/A
Altitude VFR/025
Route
Aircraft C204/L-VGD/C

Departure

Time N/A
Airport -

Arrival

Time 2026-04-28 18:47
Airport Lawrence Municipal Airport (KLWM)
Time Latitude Longitude Altitude Speed Heading
2026-04-28 18:32 43.18189 -71.12505 897 ft 88 kts 225°
2026-04-28 18:32 43.17823 -71.13130 1056 ft 84 kts 224°
2026-04-28 18:32 43.17497 -71.13753 1173 ft 76 kts 221°
2026-04-28 18:33 43.17165 -71.14399 1368 ft 94 kts 225°
2026-04-28 18:33 43.16594 -71.14698 1528 ft 92 kts 153°
2026-04-28 18:33 43.16127 -71.14073 1636 ft 98 kts 141°
2026-04-28 18:33 43.15451 -71.13770 1797 ft 110 kts 172°
2026-04-28 18:34 43.14673 -71.13685 1968 ft 112 kts 168°
2026-04-28 18:34 43.13842 -71.13609 2009 ft 128 kts 175°
2026-04-28 18:34 43.12930 -71.13577 2012 ft 137 kts 174°
2026-04-28 18:34 43.11964 -71.13542 2005 ft 141 kts 174°
2026-04-28 18:35 43.10969 -71.13508 2010 ft 145 kts 174°
2026-04-28 18:35 43.09953 -71.13472 2018 ft 145 kts 175°
2026-04-28 18:35 43.08950 -71.13462 2011 ft 142 kts 176°
2026-04-28 18:35 43.07969 -71.13469 2024 ft 146 kts 176°
2026-04-28 18:36 43.06918 -71.13482 2015 ft 154 kts 176°
2026-04-28 18:36 43.05854 -71.13495 2015 ft 149 kts 177°
2026-04-28 18:36 43.04814 -71.13502 2014 ft 147 kts 176°
2026-04-28 18:36 43.03811 -71.13506 2012 ft 147 kts 176°
2026-04-28 18:37 43.02762 -71.13500 2003 ft 149 kts 175°
2026-04-28 18:37 43.01746 -71.13498 2011 ft 149 kts 176°
2026-04-28 18:37 43.00711 -71.13481 1995 ft 148 kts 175°
2026-04-28 18:37 42.99686 -71.13485 2009 ft 148 kts 175°
2026-04-28 18:38 42.98630 -71.13481 1993 ft 152 kts 176°
2026-04-28 18:38 42.97586 -71.13570 2006 ft 150 kts 182°
2026-04-28 18:38 42.96525 -71.13707 1995 ft 156 kts 181°
2026-04-28 18:38 42.95447 -71.13857 1983 ft 152 kts 181°
2026-04-28 18:39 42.94403 -71.13991 2002 ft 154 kts 181°
2026-04-28 18:39 42.93364 -71.14113 1990 ft 154 kts 180°
2026-04-28 18:39 42.92295 -71.14252 2014 ft 153 kts 182°
2026-04-28 18:39 42.91240 -71.14378 2034 ft 153 kts 181°
2026-04-28 18:40 42.90165 -71.14512 2033 ft 156 kts 181°
2026-04-28 18:40 42.89089 -71.14635 2036 ft 157 kts 181°
2026-04-28 18:40 42.87993 -71.14778 2013 ft 156 kts 180°
2026-04-28 18:40 42.86935 -71.14917 2026 ft 151 kts 182°
2026-04-28 18:41 42.85881 -71.15058 2024 ft 151 kts 182°
2026-04-28 18:41 42.84842 -71.15196 2025 ft 151 kts 181°
2026-04-28 18:41 42.83797 -71.15312 2034 ft 152 kts 182°
2026-04-28 18:41 42.82748 -71.15440 2030 ft 151 kts 180°
2026-04-28 18:42 42.81698 -71.15565 2013 ft 157 kts 180°
2026-04-28 18:42 42.80630 -71.15641 2035 ft 153 kts 174°
2026-04-28 18:42 42.79572 -71.15531 2030 ft 152 kts 169°
2026-04-28 18:42 42.78513 -71.15396 2033 ft 154 kts 169°
2026-04-28 18:43 42.77433 -71.15268 1921 ft 159 kts 171°
2026-04-28 18:43 42.76302 -71.15112 1751 ft 164 kts 170°
2026-04-28 18:43 42.75175 -71.14987 1605 ft 161 kts 171°
2026-04-28 18:43 42.74123 -71.14884 1452 ft 147 kts 171°
2026-04-28 18:44 42.73134 -71.14891 1265 ft 143 kts 191°
2026-04-28 18:44 42.71540 -71.16542 1003 ft 140 kts 216°
2026-04-28 18:44 42.70831 -71.17331 1021 ft 126 kts 215°
2026-04-28 18:45 42.70166 -71.18036 990 ft 117 kts 201°
2026-04-28 18:45 42.69470 -71.17896 987 ft 100 kts 129°
2026-04-28 18:45 42.69057 -71.17188 987 ft 94 kts 126°
2026-04-28 18:45 42.68623 -71.16500 870 ft 99 kts 123°
2026-04-28 18:46 42.68561 -71.15627 741 ft 102 kts 60°
2026-04-28 18:46 42.69108 -71.15035 676 ft 99 kts 44°
2026-04-28 18:46 42.69614 -71.14470 556 ft 90 kts 42°
2026-04-28 18:46 42.70080 -71.13971 426 ft 83 kts 42°
2026-04-28 18:47 42.70507 -71.13518 313 ft 70 kts 45°
2026-04-28 18:47 42.70875 -71.13142 171 ft 61 kts 45°
2026-04-28 18:47 42.71001 -71.13025 117 ft 0 kts 77°